Showing default

BLUE RING PATHFINDER, 62720

Orbit data source: Space-Track

BLUE RING PATHFINDER, 62720 is a payload satellite owned by Blue Origin (US) in HEO that was launched on Thu, 16 Jan 2025 UTC via an NEW GLENN launch vehicle from the Air Force Eastern Test Range (AFETR). Payload-class satellites include a variety of spacecraft equipped with specific instruments for various scientific and technological missions. These include communications satellites like Starlink; space stations such as the ISS; scientific satellites like the Hubble; Earth observation satellites from companies like Planet Labs, Umbra, and HawkEye 360; GPS; miniature CubeSats for education and research; and military/defense satellites.

Loading next visibility...
Identifier
62720, 2025-011A
Orbit
HEO
Country
Flag of USUS
Related business
Manufacturer
Blue Origin
Mission
Non-operational Commercial Technology
Bus & Motor
BLUE RING, Unknown motor
Mass
~33,980 kg wet, ~3,980 kg dry
Launch date (UTC)
2025-01-16 (8 months ago)
Launch vehicle
NEW GLENN
Launch site
Air Force Eastern Test Range (AFETR)
Object type
Payload
Rocket body
Debris
Shape & HBR
Ann Cyl, 1.0 m
Radar Cross Section
4.712 m², Large (>1 m²)

Expand to show TLE details & history
Last TLE update: 11 hours ago

TLE from 11 hours ago
0 BLUE RING PATHFINDER
1 62720U 25011A   25261.16000993 -.00000089  00000-0  00000-0 0  9998
2 62720  29.8964 284.2715 4880624  86.2422 326.0597  3.84307960  9418
Epoch: 2025-09-18T03:50Z
TLE epoch observation values (Epoch: 2025-09-18T03:50:24.857Z)
Latitude
0.00003°
Longitude
-130.64565°
Altitude
6,314.46 km
Speed
6.298 km/s
True Right ascension
18h 57m 08s
True Declination
0° 00' 00"
Sunlit
Object was in daylight at epoch
Visualization orbit readout
Latitude
Unknown
Longitude
Unknown
Altitude
Unknown
Speed
Unknown
Apparent Right ascension
Unknown
Apparent Declination
Unknown
Sunlit
N/A
Visualization observer readout
Local Sidereal Time
07:11:28
Azimuth
Unknown
Elevation
Unknown
Doppler factor
Unknown
Orbital elements
Apogee altitude
19,244.936 km
Perigee altitude
2,436.96 km
Semi-major axis
17,219.085 km
Eccentricity
0.48806
Inclination
29.8964°
RAAN
284.2715°
Arg. of periapsis
86.2422°
True anomaly
273.78687°
Mean anomaly
326.0597°
Eccentric anomaly
302.46635°
Mean motion
0.96057 °/min
Orbital period
374.78 mins
BSTAR
0
Loading maneuver chart data...
Computing Atmospheric mass density...
Loading historical data...
Loading historical data...
Loading historical data...
Loading historical data...
Loading historical data...
Loading historical data...
Loading historical data...
Other satellites on launch #11 in the year 2025 (2025-01-16 UTC)

Documentation

Showing up to 5 results
|